When you browse on this site, cookies collect data to enhance your experience and personalize the content and advertising you see.
Visit our Privacy Policy to learn more. By continuing to use the site, you agree to this use of cookies and data.
  • In Hungary
  • List of Countries
  • For 7 days
  • Water Temperature
  • Satellite Maps
  • Weather Map
  • News
  • Weather Widgets
  • user-avatar
    Login

    Hourly Weather Lulea

    Today, 27 June, Thursday

    Time Temperature Precipitation Wind Pressure Humidity
    00:00 +12°C° 0 mm 5 mps 757 mmHg 61%
    01:00 +10°C° 0 mm 5 mps 757 mmHg 62%
    02:00 +10°C° 0 mm 5 mps 757 mmHg 62%
    03:00 +12°C° 0 mm 4 mps 757 mmHg 61%
    04:00 +12°C° 0 mm 4 mps 756 mmHg 61%
    05:00 +13°C° 0 mm 4 mps 756 mmHg 58%
    06:00 +14°C° 0 mm 5 mps 756 mmHg 56%
    07:00 +15°C° 0 mm 5 mps 756 mmHg 53%
    08:00 +15°C° 0 mm 4 mps 756 mmHg 50%
    09:00 +17°C° 0 mm 3 mps 756 mmHg 46%
    10:00 +18°C° 0 mm 3 mps 756 mmHg 43%
    11:00 +18°C° 0 mm 3 mps 757 mmHg 41%
    12:00 +18°C° 0 mm 4 mps 757 mmHg 39%
    13:00 +19°C° 0 mm 5 mps 757 mmHg 37%
    14:00 +17°C° 0 mm 5 mps 757 mmHg 37%
    15:00 +18°C° 0 mm 4 mps 758 mmHg 36%
    16:00 +18°C° 0 mm 4 mps 758 mmHg 36%
    17:00 +16°C° 0 mm 5 mps 758 mmHg 36%
    18:00 +16°C° 0 mm 5 mps 758 mmHg 35%
    19:00 +15°C° 0 mm 5 mps 759 mmHg 35%
    20:00 +13°C° 0 mm 4 mps 759 mmHg 41%
    21:00 +11°C° 0 mm 4 mps 759 mmHg 47%
    22:00 +10°C° 0 mm 3 mps 760 mmHg 54%
    23:00 +9°C° 0 mm 3 mps 760 mmHg 53%

    Tomorrow, 28 June, Friday

    Time Temperature Precipitation Wind Pressure Humidity
    00:00 +9°C° 0 mm 3 mps 760 mmHg 53%
    01:00 +9°C° 0 mm 3 mps 761 mmHg 53%
    02:00 +9°C° 0 mm 3 mps 760 mmHg 53%
    03:00 +9°C° 0 mm 3 mps 760 mmHg 53%
    04:00 +9°C° 0 mm 3 mps 760 mmHg 53%
    05:00 +10°C° 0 mm 3 mps 760 mmHg 50%
    06:00 +12°C° 0 mm 2 mps 760 mmHg 48%
    07:00 +13°C° 0 mm 2 mps 759 mmHg 45%
    08:00 +13°C° 0 mm 3 mps 759 mmHg 43%
    09:00 +14°C° 0 mm 3 mps 758 mmHg 42%
    10:00 +17°C° 0 mm 4 mps 758 mmHg 40%
    11:00 +17°C° 0 mm 4 mps 758 mmHg 40%
    12:00 +16°C° 0 mm 5 mps 757 mmHg 40%
    13:00 +16°C° 0 mm 5 mps 757 mmHg 41%
    14:00 +17°C° 0 mm 5 mps 756 mmHg 41%
    15:00 +17°C° 0 mm 5 mps 756 mmHg 40%
    16:00 +17°C° 0 mm 5 mps 756 mmHg 40%
    17:00 +17°C° 0 mm 4 mps 755 mmHg 44%
    18:00 +17°C° 0 mm 4 mps 755 mmHg 47%
    19:00 +16°C° 0 mm 3 mps 755 mmHg 50%
    20:00 +14°C° 0 mm 3 mps 755 mmHg 53%
    21:00 +12°C° 0 mm 3 mps 755 mmHg 56%
    22:00 +12°C° 0 mm 2 mps 755 mmHg 59%
    23:00 +10°C° 0 mm 3 mps 755 mmHg 60%

    Day after tomorrow, 29 June, Saturday

    Time Temperature Precipitation Wind Pressure Humidity
    00:00 +8°C° 0 mm 3 mps 755 mmHg 60%
    01:00 +7°C° 0 mm 3 mps 755 mmHg 61%
    02:00 +8°C° 0 mm 3 mps 754 mmHg 61%
    03:00 +8°C° 0 mm 3 mps 754 mmHg 60%
    04:00 +9°C° 0 mm 3 mps 754 mmHg 59%
    05:00 +12°C° 0 mm 2 mps 753 mmHg 55%
    06:00 +13°C° 0 mm 2 mps 753 mmHg 50%
    07:00 +14°C° 0 mm 2 mps 753 mmHg 46%
    08:00 +14°C° 0 mm 2 mps 753 mmHg 51%
    09:00 +13°C° 0 mm 3 mps 752 mmHg 57%
    10:00 +13°C° 0 mm 3 mps 752 mmHg 62%
    11:00 +14°C° 0.2 mm 3 mps 752 mmHg 56%
    12:00 +16°C° 0.2 mm 3 mps 752 mmHg 50%
    13:00 +17°C° 0.2 mm 3 mps 752 mmHg 44%
    14:00 +18°C° 0 mm 4 mps 752 mmHg 40%
    15:00 +18°C° 0 mm 4 mps 752 mmHg 35%
    16:00 +18°C° 0 mm 4 mps 752 mmHg 31%
    17:00 +17°C° 0 mm 4 mps 753 mmHg 34%
    18:00 +17°C° 0 mm 4 mps 753 mmHg 37%
    19:00 +16°C° 0 mm 3 mps 753 mmHg 40%
    20:00 +14°C° 0 mm 3 mps 754 mmHg 44%
    21:00 +12°C° 0 mm 3 mps 754 mmHg 48%
    22:00 +10°C° 0 mm 3 mps 755 mmHg 52%
    23:00 +9°C° 0 mm 3 mps 755 mmHg 54%

    30 June, Sunday

    Time Temperature Precipitation Wind Pressure Humidity
    00:00 +8°C° 0 mm 3 mps 755 mmHg 57%
    01:00 +6°C° 0 mm 2 mps 755 mmHg 60%
    02:00 +7°C° 0 mm 2 mps 755 mmHg 59%
    03:00 +7°C° 0 mm 2 mps 756 mmHg 58%
    04:00 +8°C° 0 mm 2 mps 756 mmHg 57%
    05:00 +9°C° 0 mm 2 mps 756 mmHg 53%
    06:00 +10°C° 0 mm 2 mps 755 mmHg 50%
    07:00 +12°C° 0 mm 2 mps 755 mmHg 47%
    08:00 +12°C° 0 mm 3 mps 755 mmHg 46%
    09:00 +12°C° 0 mm 3 mps 755 mmHg 45%
    10:00 +12°C° 0 mm 4 mps 754 mmHg 44%
    11:00 +13°C° 0 mm 4 mps 754 mmHg 44%
    12:00 +13°C° 0 mm 4 mps 753 mmHg 44%
    13:00 +13°C° 0 mm 4 mps 752 mmHg 45%
    14:00 +12°C° 0 mm 4 mps 752 mmHg 50%
    15:00 +12°C° 0 mm 4 mps 751 mmHg 56%
    16:00 +12°C° 0 mm 4 mps 750 mmHg 61%
    17:00 +10°C° 2 mm 4 mps 750 mmHg 73%
    18:00 +8°C° 2 mm 5 mps 749 mmHg 85%
    19:00 +7°C° 2 mm 5 mps 748 mmHg 97%
    20:00 +7°C° 2.1 mm 5 mps 747 mmHg 97%
    21:00 +7°C° 2.1 mm 5 mps 746 mmHg 97%
    22:00 +7°C° 2.1 mm 5 mps 745 mmHg 98%
    23:00 +9°C° 0.2 mm 3 mps 744 mmHg 98%

    1 July, Monday

    Time Temperature Precipitation Wind Pressure Humidity
    00:00 +9°C° 0.2 mm 2 mps 744 mmHg 98%
    01:00 +10°C° 0.2 mm 1 mps 743 mmHg 98%
    02:00 +10°C° 0 mm 1 mps 743 mmHg 98%
    03:00 +11°C° 0 mm 1 mps 742 mmHg 98%
    04:00 +10°C° 0 mm 2 mps 742 mmHg 97%
    05:00 +12°C° 0 mm 2 mps 742 mmHg 95%
    06:00 +13°C° 0 mm 2 mps 743 mmHg 92%
    07:00 +14°C° 0 mm 2 mps 743 mmHg 89%
    08:00 +14°C° 0.1 mm 2 mps 743 mmHg 87%
    09:00 +15°C° 0.1 mm 2 mps 743 mmHg 86%
    10:00 +15°C° 0.1 mm 2 mps 744 mmHg 84%
    11:00 +16°C° 0.1 mm 2 mps 744 mmHg 77%
    12:00 +16°C° 0.1 mm 2 mps 744 mmHg 70%
    13:00 +17°C° 0.1 mm 2 mps 745 mmHg 64%
    14:00 +18°C° 0 mm 2 mps 745 mmHg 62%
    15:00 +18°C° 0 mm 2 mps 745 mmHg 60%
    16:00 +18°C° 0 mm 2 mps 745 mmHg 59%
    17:00 +18°C° 0 mm 2 mps 745 mmHg 63%
    18:00 +17°C° 0 mm 2 mps 746 mmHg 68%
    19:00 +16°C° 0 mm 3 mps 746 mmHg 73%
    20:00 +15°C° 0 mm 2 mps 746 mmHg 77%
    21:00 +14°C° 0 mm 2 mps 746 mmHg 81%
    22:00 +12°C° 0 mm 2 mps 746 mmHg 86%
    23:00 +12°C° 0 mm 2 mps 746 mmHg 87%

    2 July, Tuesday

    Time Temperature Precipitation Wind Pressure Humidity
    00:00 +10°C° 0 mm 2 mps 746 mmHg 89%
    01:00 +11°C° 0 mm 1 mps 747 mmHg 90%
    02:00 +12°C° 0 mm 1 mps 747 mmHg 88%
    03:00 +12°C° 0 mm 1 mps 747 mmHg 85%
    04:00 +13°C° 0 mm 1 mps 747 mmHg 83%
    05:00 +14°C° 0 mm 2 mps 747 mmHg 79%
    06:00 +15°C° 0 mm 2 mps 748 mmHg 75%
    07:00 +16°C° 0 mm 3 mps 748 mmHg 72%
    08:00 +16°C° 0 mm 3 mps 748 mmHg 70%
    09:00 +15°C° 0 mm 4 mps 749 mmHg 67%
    10:00 +15°C° 0 mm 4 mps 749 mmHg 65%
    11:00 +15°C° 0 mm 4 mps 749 mmHg 64%
    12:00 +16°C° 0 mm 5 mps 749 mmHg 63%
    13:00 +16°C° 0 mm 5 mps 749 mmHg 62%
    14:00 +16°C° 0 mm 5 mps 750 mmHg 61%
    15:00 +16°C° 0 mm 5 mps 750 mmHg 60%
    16:00 +16°C° 0 mm 5 mps 750 mmHg 59%
    17:00 +15°C° 0 mm 5 mps 750 mmHg 61%
    18:00 +15°C° 0 mm 5 mps 750 mmHg 62%
    19:00 +14°C° 0 mm 5 mps 750 mmHg 64%
    20:00 +14°C° 0 mm 5 mps 750 mmHg 67%
    21:00 +13°C° 0 mm 5 mps 750 mmHg 70%
    22:00 +12°C° 0 mm 5 mps 750 mmHg 73%
    23:00 +12°C° 0 mm 5 mps 750 mmHg 75%
    Show more